Regional Weather Roundup
Issued by NWS

Home | Current Version | Previous Version | Text Only | Print | Product List | Glossary Off
Versions: 1 2 3 4 5 6 7 8 9 10 11 12 13 14 15 16 17 18 19 20 21 22 23 24 25 26 27 28 29 30 31 32 33 34 35 36 37 38 39 40 41 42 43 44 45 46 47 48 49 50

000
ASUS43 KOAX 230502
RWRNE

WEATHER ROUNDUP FOR NEBRASKA
NATIONAL WEATHER SERVICE OMAHA NE
1200 AM CDT TUE MAY 23 2017

NOTES: SATELLITE DATA IS BEING USED TO AUGMENT CLOUD COVER ABOVE
       12000 FEET.
       "FAIR" INDICATES FEW OR NO CLOUDS BELOW 12,000 FEET WITH NO
       SIGNIFICANT WEATHER AND/OR OBSTRUCTIONS TO VISIBILITY.

  * THESE STATIONS DO NOT REPORT WEATHER SUCH AS RAIN...SNOW OR FOG.

NEZ001>004-019>022-054>056-230600-
NEBRASKA PANHANDLE

CITY           SKY/WX    TMP DP  RH WIND       PRES   REMARKS
SCOTTSBLUFF    CLEAR     39  36  89 NW7       30.19R WCI  34
ALLIANCE       CLOUDY    34  33  96 W8        30.15S WCI  27
CHADRON        CLOUDY    45  42  89 W3        30.16R
GORDON         CLOUDY    45  40  80 NW7       30.12S
KIMBALL        CLOUDY    39  36  91 NW9       30.21S WCI  33
SIDNEY         CLOUDY    37  35  92 W9        30.19R WCI  30
$$

NEZ057>060-069>072-079>082-230600-
SOUTHWEST NEBRASKA

CITY           SKY/WX    TMP DP  RH WIND       PRES   REMARKS
NORTH PLATTE   CLEAR     43  42  97 NW7       30.09R
IMPERIAL       CLOUDY    46  41  82 NW8       30.13R
LEXINGTON      MOCLDY    51  48  89 NW6       30.06S
MCCOOK         MOCLDY    49  45  86 N10       30.07F
OGALLALA       CLEAR     43  40  90 NW10      30.13R
$$

NEZ005>010-023>029-035>040-094-230600-
NORTH CENTRAL NEBRASKA

CITY           SKY/WX    TMP DP  RH WIND       PRES   REMARKS
VALENTINE      CLOUDY    46  41  82 W9        30.07R
AINSWORTH      CLEAR     46  43  90 NW7       30.05F
BROKEN BOW     CLOUDY    50  43  77 NW7       30.04S
O`NEILL        MOCLDY    49  42  76 W3        30.01S
ORD            CLOUDY    49  43  80 NW5       30.02R
$$

NEZ041-046>049-061>064-073>077-083>087-230600-
SOUTH CENTRAL NEBRASKA

CITY           SKY/WX    TMP DP  RH WIND       PRES   REMARKS
GRAND ISLAND   CLOUDY    55  47  74 N15       30.02R
AURORA         CLOUDY    55  47  74 N15       29.99R
HASTINGS       LGT RAIN  54  49  83 NW12      30.03R
HEBRON         CLOUDY    57  53  87 W5        29.96R
HOLDREGE       LGT RAIN  49  45  83 N10       30.06S
KEARNEY *      CLOUDY    54  46  76 NW12      30.04S
$$

NEZ011>018-030>034-042>045-230600-
NORTHEAST NEBRASKA

CITY           SKY/WX    TMP DP  RH WIND       PRES   REMARKS
NORFOLK        MOCLDY    49  43  80 NW7       29.97F
ALBION         MOCLDY    51  45  78 N6        30.00R
BLAIR          MOCLDY    56  49  78 N12       29.92R
FREMONT        PTCLDY    55  47  76 NW7       29.95R
TEKAMAH        CLEAR     53  47  79 NW12      29.93R
WAYNE          PTCLDY    48  47  97 NW8       29.96S
$$

NEZ050>053-065>068-078-088>093-230600-
SOUTHEAST NEBRASKA

CITY           SKY/WX    TMP DP  RH WIND       PRES   REMARKS
LINCOLN        PTCLDY    54  48  80 N10       29.95R
OMAHA EPPLEY   MOCLDY    57  49  74 N9        29.91R
BEATRICE       PTCLDY    54  53  96 W5        29.92S
FALLS CITY     CLOUDY    55  54  96 SW3       29.88F
NEBRASKA CITY  CLOUDY    56  48  72 NW10      29.89F
$$

NEZ044-045-051>053-067-230600-
OMAHA AREA

CITY           SKY/WX    TMP DP  RH WIND       PRES   REMARKS
OMAHA EPPLEY   MOCLDY    57  49  74 N9        29.91R
BLAIR          MOCLDY    56  49  78 N12       29.92R
FREMONT        PTCLDY    55  47  76 NW7       29.95R
OFFUTT AFB     CLEAR     57  49  77 N12       29.90R
WAHOO          FAIR      55  48  77 NW13G20   29.94S
$$



USA.gov is the U.S. government's official web portal to all federal, state and local government web resources and services.